Regional Weather Roundup
Issued by NWS

Home | Current Version | Previous Version | Graphics & Text | Print | Product List | Glossary On
Versions: 1 2 3 4 5 6 7 8 9 10 11 12 13 14 15 16 17 18 19 20 21 22 23 24 25 26 27 28 29 30 31 32 33 34 35 36 37 38 39 40 41 42 43 44 45 46 47 48 49 50
000
ASUS43 KLSX 020207
RWRMO

WEATHER SUMMARY FOR MISSOURI
NATIONAL WEATHER SERVICE SPRINGFIELD MO
900 PM CDT SAT AUG 01 2015

NOTE: "FAIR" INDICATES FEW OR NO CLOUDS BELOW 12,000 FEET WITH NO
       SIGNIFICANT WEATHER AND/OR OBSTRUCTIONS TO VISIBILITY.
       CURRENT SKY AND/OR WEATHER CONDITIONS ARE NOT AVAILABLE FOR
       CHILLICOTHE AND FARMINGTON.

MOZ001>031-035>038-043-044-053-054-020300-
...NORTHERN AND WESTERN MISSOURI...

CITY           SKY/WX    TMP DP  RH WIND       PRES   REMARKS
KANSAS CTY INT PTCLDY    75  62  64 SE16      29.96S
KANSAS C DTWN  CLEAR     78  61  55 SE5       29.96S
LEE`S SUMMIT   CLEAR     74  59  59 SE3       29.98S
ST JOSEPH        N/A     77  63  61 SE14      29.94R
CHILLICOTHE      N/A     73  67  81 NE12G18   29.99R
KIRKSVILLE     MOCLDY    73  63  70 W5        29.97S

$$
MOZ066>068-077>081-088>096-101>105-020300-
...SOUTHWEST MISSOURI...

CITY           SKY/WX    TMP DP  RH WIND       PRES   REMARKS
SPRINGFIELD    CLEAR     80  65  59 SE7       29.99S
JOPLIN         PTCLDY    82  64  54 S7        29.98R

$$
MOZ032>034-039>042-045>050-055>058-069>072-020300-
...CENTRAL MISSOURI...

CITY           SKY/WX    TMP DP  RH WIND       PRES   REMARKS
COLUMBIA       CLOUDY    71  69  93 SW7       29.97S
JEFFERSON CITY MOCLDY    74  67  78 CALM      29.96S
ROLLA          PTCLDY    74  70  87 CALM      29.98F
SEDALIA        MOCLDY    74  66  76 CALM      29.96F
WHITEMAN AFB   PTCLDY    70  65  83 S3        29.96F
WARRENSBURG    CLEAR     70  63  78 CALM      29.96F
OSAGE BEACH    PTCLDY    73  66  78 SW3       30.00F

$$
MOZ051-052-059>065-020300-
...EAST CENTRAL MISSOURI...

CITY           SKY/WX    TMP DP  RH WIND       PRES   REMARKS
ST LOUIS INTL  CLOUDY    86  69  56 S3        29.97R HX  90
SPIRIT OF STL  CLOUDY    80  74  81 CALM      29.95R
ST CHARLES     CLOUDY    79  73  82 NE3       29.95S

$$
MOZ072>076-082>087-097>100-106>115-020300-
...SOUTH CENTRAL AND SOUTHEAST MISSOURI...

CITY           SKY/WX    TMP DP  RH WIND       PRES   REMARKS
CAPE GIRARDEAU CLEAR     77  73  87 SE3       29.96S
FARMINGTON     CLEAR     77  70  78 CALM      30.03S
POPLAR BLUFF   CLEAR     79  74  84 SE3       29.95R
WEST PLAINS    CLEAR     76  69  79 CALM      30.02S

$$


USA.gov is the U.S. government's official web portal to all federal, state and local government web resources and services.